Tiempo cada hora Dabrowka

Hoy, 28 Noviembre, Sábado

Tiempo Temperatura Precipitaciones Viento Presión Humedad
00:00 +2°C° 0 mm 3 mps 746 mmHg 78%
01:00 +2°C° 0 mm 3 mps 745 mmHg 77%
02:00 +2°C° 0 mm 3 mps 745 mmHg 77%
03:00 +2°C° 0 mm 3 mps 745 mmHg 76%
04:00 +2°C° 0 mm 3 mps 745 mmHg 76%
05:00 +2°C° 0 mm 3 mps 745 mmHg 79%
06:00 +1°C° 0 mm 3 mps 745 mmHg 82%
07:00 +1°C° 0 mm 3 mps 745 mmHg 84%
08:00 +2°C° 0 mm 3 mps 745 mmHg 80%
09:00 +2°C° 0 mm 3 mps 746 mmHg 77%
10:00 +2°C° 0 mm 3 mps 746 mmHg 73%
11:00 +1°C° 0 mm 4 mps 746 mmHg 76%
12:00 +1°C° 0 mm 4 mps 746 mmHg 79%
13:00 +1°C° 0 mm 4 mps 746 mmHg 83%
14:00 +1°C° 0.1 mm 4 mps 746 mmHg 80%
15:00 +1°C° 0.1 mm 4 mps 746 mmHg 77%
16:00 +1°C° 0.1 mm 3 mps 746 mmHg 74%
17:00 +1°C° 0 mm 3 mps 746 mmHg 75%
18:00 0°C° 0 mm 3 mps 746 mmHg 76%
19:00 +1°C° 0 mm 2 mps 746 mmHg 78%
20:00 +1°C° 0 mm 2 mps 746 mmHg 80%
21:00 0°C° 0 mm 3 mps 746 mmHg 83%
22:00 -1°C° 0 mm 3 mps 746 mmHg 86%
23:00 -1°C° 0.2 mm 3 mps 746 mmHg 89%

Mañana, 29 Noviembre, Domingo

Tiempo Temperatura Precipitaciones Viento Presión Humedad
00:00 -1°C° 0.2 mm 3 mps 746 mmHg 93%
01:00 -1°C° 0.2 mm 3 mps 745 mmHg 96%
02:00 -1°C° 0.7 mm 3 mps 745 mmHg 96%
03:00 -1°C° 0.7 mm 3 mps 745 mmHg 97%
04:00 -1°C° 0.7 mm 3 mps 745 mmHg 97%
05:00 -1°C° 0.2 mm 3 mps 745 mmHg 96%
06:00 -2°C° 0.2 mm 3 mps 745 mmHg 95%
07:00 -2°C° 0.2 mm 3 mps 745 mmHg 94%
08:00 -2°C° 0 mm 3 mps 745 mmHg 91%
09:00 -1°C° 0 mm 3 mps 745 mmHg 88%
10:00 -1°C° 0 mm 3 mps 746 mmHg 86%
11:00 -1°C° 0 mm 2 mps 746 mmHg 84%
12:00 -1°C° 0 mm 2 mps 746 mmHg 83%
13:00 -1°C° 0 mm 2 mps 746 mmHg 82%
14:00 +1°C° 0 mm 1 mps 746 mmHg 83%
15:00 +1°C° 0 mm 1 mps 745 mmHg 85%
16:00 +1°C° 0 mm 1 mps 745 mmHg 87%
17:00 0°C° 0 mm 1 mps 746 mmHg 88%
18:00 0°C° 0 mm 1 mps 746 mmHg 90%
19:00 -1°C° 0 mm 1 mps 746 mmHg 92%
20:00 -1°C° 0 mm 1 mps 746 mmHg 92%
21:00 -1°C° 0 mm 1 mps 747 mmHg 93%
22:00 -1°C° 0 mm 1 mps 747 mmHg 93%
23:00 -1°C° 0 mm 1 mps 747 mmHg 94%

Pasado mañana, 30 Noviembre, Lunes

Tiempo Temperatura Precipitaciones Viento Presión Humedad
00:00 -1°C° 0 mm 1 mps 747 mmHg 94%
01:00 -1°C° 0 mm 1 mps 747 mmHg 94%
02:00 -1°C° 0 mm 1 mps 747 mmHg 94%
03:00 -1°C° 0 mm 1 mps 747 mmHg 94%
04:00 -1°C° 0 mm 1 mps 747 mmHg 94%
05:00 -1°C° 0 mm 1 mps 748 mmHg 93%
06:00 -1°C° 0 mm 1 mps 748 mmHg 92%
07:00 -1°C° 0 mm 1 mps 748 mmHg 91%
08:00 0°C° 0 mm 1 mps 749 mmHg 87%
09:00 -2°C° 0 mm 2 mps 749 mmHg 83%
10:00 -1°C° 0 mm 2 mps 749 mmHg 79%
11:00 -1°C° 0 mm 2 mps 749 mmHg 78%
12:00 -1°C° 0 mm 3 mps 749 mmHg 76%
13:00 0°C° 0 mm 3 mps 749 mmHg 75%
14:00 -1°C° 0 mm 3 mps 749 mmHg 80%
15:00 -1°C° 0 mm 3 mps 749 mmHg 86%
16:00 -1°C° 0 mm 2 mps 749 mmHg 91%
17:00 -1°C° 0.1 mm 2 mps 749 mmHg 92%
18:00 -1°C° 0.1 mm 2 mps 749 mmHg 92%
19:00 -1°C° 0.1 mm 2 mps 749 mmHg 93%
20:00 -1°C° 0 mm 2 mps 749 mmHg 93%
21:00 -2°C° 0 mm 2 mps 749 mmHg 92%
22:00 -2°C° 0 mm 2 mps 749 mmHg 92%
23:00 -2°C° 0 mm 2 mps 749 mmHg 91%

1 Diciembre, Martes

Tiempo Temperatura Precipitaciones Viento Presión Humedad
00:00 -2°C° 0 mm 2 mps 748 mmHg 90%
01:00 -2°C° 0 mm 2 mps 748 mmHg 89%
02:00 -3°C° 0 mm 2 mps 748 mmHg 88%
03:00 -3°C° 0 mm 2 mps 748 mmHg 86%
04:00 -4°C° 0 mm 3 mps 747 mmHg 85%
05:00 -4°C° 0 mm 3 mps 747 mmHg 83%
06:00 -4°C° 0 mm 3 mps 747 mmHg 81%
07:00 -4°C° 0 mm 4 mps 747 mmHg 80%
08:00 -3°C° 0 mm 4 mps 747 mmHg 77%
09:00 -3°C° 0 mm 4 mps 747 mmHg 75%
10:00 -2°C° 0 mm 4 mps 747 mmHg 73%
11:00 -2°C° 0 mm 4 mps 747 mmHg 72%
12:00 -1°C° 0 mm 4 mps 747 mmHg 71%
13:00 -1°C° 0 mm 4 mps 747 mmHg 70%
14:00 0°C° 0 mm 3 mps 746 mmHg 73%
15:00 -1°C° 0 mm 3 mps 746 mmHg 75%
16:00 -2°C° 0 mm 2 mps 746 mmHg 78%
17:00 -2°C° 0 mm 2 mps 747 mmHg 79%
18:00 -2°C° 0 mm 2 mps 747 mmHg 80%
19:00 -2°C° 0 mm 2 mps 747 mmHg 80%
20:00 -2°C° 0 mm 2 mps 747 mmHg 80%
21:00 -3°C° 0 mm 2 mps 747 mmHg 80%
22:00 -3°C° 0 mm 2 mps 747 mmHg 79%
23:00 -3°C° 0 mm 2 mps 747 mmHg 79%

2 Diciembre, Miércoles

Tiempo Temperatura Precipitaciones Viento Presión Humedad
00:00 -3°C° 0 mm 2 mps 747 mmHg 79%
01:00 -3°C° 0 mm 2 mps 748 mmHg 79%
02:00 -3°C° 0 mm 2 mps 747 mmHg 80%
03:00 -3°C° 0 mm 2 mps 747 mmHg 80%
04:00 -3°C° 0 mm 2 mps 747 mmHg 80%
05:00 -3°C° 0 mm 2 mps 747 mmHg 80%
06:00 -3°C° 0 mm 2 mps 747 mmHg 80%
07:00 -3°C° 0 mm 2 mps 748 mmHg 80%
08:00 -3°C° 0 mm 2 mps 748 mmHg 77%
09:00 -2°C° 0 mm 2 mps 748 mmHg 73%
10:00 -1°C° 0 mm 2 mps 748 mmHg 70%
11:00 -1°C° 0 mm 2 mps 747 mmHg 68%
12:00 +1°C° 0 mm 2 mps 747 mmHg 66%
13:00 +1°C° 0 mm 2 mps 747 mmHg 64%
14:00 -1°C° 0 mm 2 mps 747 mmHg 67%
15:00 -1°C° 0 mm 2 mps 747 mmHg 70%
16:00 -2°C° 0 mm 2 mps 747 mmHg 74%
17:00 -2°C° 0 mm 2 mps 747 mmHg 74%
18:00 -2°C° 0 mm 2 mps 747 mmHg 74%
19:00 -3°C° 0 mm 2 mps 747 mmHg 73%
20:00 -3°C° 0 mm 2 mps 747 mmHg 73%
21:00 -3°C° 0 mm 2 mps 747 mmHg 72%
22:00 -3°C° 0 mm 2 mps 747 mmHg 72%
23:00 -3°C° 0 mm 2 mps 746 mmHg 72%

3 Diciembre, Jueves

Tiempo Temperatura Precipitaciones Viento Presión Humedad
00:00 -3°C° 0 mm 2 mps 746 mmHg 72%
01:00 -3°C° 0 mm 2 mps 746 mmHg 73%
02:00 -3°C° 0 mm 2 mps 746 mmHg 73%
03:00 -3°C° 0 mm 2 mps 746 mmHg 74%
04:00 -3°C° 0 mm 2 mps 746 mmHg 74%
05:00 -3°C° 0 mm 2 mps 745 mmHg 74%
06:00 -3°C° 0 mm 2 mps 745 mmHg 74%
07:00 -3°C° 0 mm 2 mps 745 mmHg 74%
08:00 -3°C° 0 mm 2 mps 745 mmHg 71%
09:00 -2°C° 0 mm 2 mps 745 mmHg 68%
10:00 -1°C° 0 mm 2 mps 745 mmHg 64%
11:00 -1°C° 0 mm 2 mps 744 mmHg 62%
12:00 -1°C° 0 mm 2 mps 744 mmHg 60%
13:00 +1°C° 0 mm 2 mps 744 mmHg 58%
14:00 -1°C° 0 mm 3 mps 743 mmHg 60%
15:00 -1°C° 0 mm 3 mps 743 mmHg 63%
16:00 -2°C° 0 mm 3 mps 742 mmHg 66%
17:00 -2°C° 0 mm 3 mps 742 mmHg 66%
18:00 -2°C° 0 mm 3 mps 742 mmHg 67%
19:00 -4°C° 0 mm 3 mps 741 mmHg 67%
20:00 -4°C° 0 mm 3 mps 741 mmHg 67%
21:00 -4°C° 0 mm 3 mps 741 mmHg 66%
22:00 -3°C° 0 mm 2 mps 741 mmHg 66%
23:00 -3°C° 0 mm 2 mps 740 mmHg 67%
Mostrar más

Necesitamos Su Consentimiento

Meteoprog y nuestros Proveedores de Servicios pueden almacenar y acceder a sus datos personales como cookies, identificadores de dispositivo u otras tecnologías similares de su dispositivo y procesar dichos datos para personalizar contenido y anuncios, además de ofrecer funciones de redes sociales y analizar el tráfico.

  • Almacenar y/o acceder a información en su dispositivo

    Se puede almacenar o acceder a cookies, identificadores de dispositivo u otra información de su dispositivo para los fines anteriormente indicados.

  • Anuncios y contenido personalizados, medición de anuncios y contenido, percepciones del público, y desarrollo de productos

    Los anuncios y el contenido pueden personalizarse en base a su perfil. Se pueden añadir más datos para personalizar mejor los anuncios y contenidos. Se puede medir el rendimiento de los anuncios y contenidos. Se puede obtener la percepción sobre el público que ha visto los anuncios y contenidos. Dichos datos pueden usarse para desarrollar o mejorar la experiencia del usuario, sistemas y software.

Al hacer clic en ‘Estoy De Acuerdo’ usted permitirá el uso de las cookies, identificadores de dispositivo, balizas web u otras tecnologías similares indicadas. Su configuración puede cambiarse desde el navegador de su dispositivo.

Para ciertos fines, los intereses legítimos pueden ser considerados por encima del consentimiento. Puede leer más sobre ello en nuestra Política de Privacidad y Cookies.